GW0580 Weather Reports


time (UTC)temp
C
wind
direction
speed
KPH
gust
KPH
rain 1hr
cm
rain 24hr
cm
rain mn
cm
humidity
%
barometer
mb
20260506104438 14 60 6.4 14.5 0.00 0.00 0.00 73 1018.2
20260506103437 14 64 4.8 14.5 0.00 0.00 0.00 72 1018.3
20260506102437 14 51 3.2 6.4 0.00 0.00 0.00 72 1018.5
20260506101437 14 41 3.2 8.0 0.00 0.00 0.00 72 1018.5
20260506100437 14 49 3.2 6.4 0.00 0.00 0.00 72 1018.5
20260506095437 14 45 4.8 8.0 0.00 0.00 0.00 72 1018.6
20260506094436 14 41 6.4 16.1 0.00 0.00 0.00 72 1018.6
20260506093439 14 45 8.0 20.9 0.00 0.00 0.00 72 1018.7
20260506092438 14 56 8.0 14.5 0.00 0.00 0.00 72 1018.7
20260506091438 14 49 9.7 16.1 0.00 0.00 0.00 71 1018.7
20260506090437 14 64 4.8 14.5 0.00 0.00 0.00 72 1018.6
20260506085438 13 56 6.4 14.5 0.00 0.00 0.00 72 1018.7
20260506084438 13 52 8.0 14.5 0.00 0.00 0.00 73 1018.7
20260506083438 13 54 6.4 11.3 0.00 0.00 0.00 73 1018.6
20260506081437 12 47 1.6 4.8 0.00 0.00 0.00 72 1019.0
20260506073437 13 45 0.0 1.6 0.00 0.00 0.00 70 1019.4
20260506072437 13 45 3.2 3.2 0.00 0.00 0.00 70 1019.1
20260506071437 13 13 0.0 3.2 0.00 0.00 0.00 70 1019.3
20260506070450 13 34 3.2 4.8 0.00 0.00 0.00 71 1019.2
20260506062438 14 32 4.8 6.4 0.00 0.00 0.00 69 1019.2
20260506061438 14 30 4.8 6.4 0.00 0.00 0.00 69 1019.3
20260506050437 16 45 3.2 4.8 0.00 0.00 0.00 66 1018.9
20260506044437 16 38 3.2 6.4 0.00 0.00 0.00 66 1018.8
20260506043437 17 264 1.6 3.2 0.00 0.00 0.00 66 1019.0
20260506042445 17 45 1.6 3.2 0.00 0.00 0.00 66 1018.8
20260506041438 17 36 1.6 4.8 0.00 0.00 0.00 66 1018.6
20260506040438 17 68 0.0 1.6 0.00 0.00 0.00 66 1018.6
20260506035438 17 36 3.2 6.4 0.00 0.00 0.00 66 1018.6
20260506034438 18 41 1.6 4.8 0.00 0.00 0.00 66 1018.6
20260506033438 18 43 1.6 3.2 0.00 0.00 0.00 66 1018.7
20260506032436 18 26 0.0 1.6 0.00 0.00 0.00 66 1018.4
20260506031438 18 41 0.0 1.6 0.00 0.00 0.00 66 1018.4
20260506030437 18 22 0.0 1.6 0.00 0.00 0.00 66 1018.6
20260506025441 18 45 0.0 3.2 0.00 0.00 0.00 65 1018.2
20260506024437 18 45 1.6 3.2 0.00 0.00 0.00 65 1018.2
20260506022437 18 39 3.2 4.8 0.00 0.00 0.00 65 1018.2
20260506020438 18 58 0.0 1.6 0.00 0.00 0.00 66 1018.2
20260506015437 18 77 1.6 3.2 0.00 0.00 0.00 66 1018.1
20260506014438 18 22 3.2 6.4 0.00 0.00 0.00 65 1018.3
20260506012437 18 218 1.6 3.2 0.00 0.00 0.00 67 1018.4
20260506011439 18 248 1.6 6.4 0.00 0.00 0.00 68 1018.2
20260506005438 17 287 1.6 3.2 0.00 0.00 0.00 69 1018.4
20260506003437 17 148 1.6 4.8 0.00 0.00 0.00 69 1018.6
20260506001438 17 45 0.0 0.0 0.00 0.00 0.00 71 1018.8
20260506000438 16 45 1.6 3.2 0.00 0.00 0.00 71 1018.9
20260505235438 16 38 3.2 4.8 0.00 0.00 0.00 71 1018.9
20260505234436 16 148 0.0 1.6 0.00 0.00 0.00 72 1019.1
20260505233438 15 167 1.6 3.2 0.00 0.00 0.00 72 1019.2
20260505230438 14 45 4.8 6.4 0.00 0.00 0.00 70 1019.1
20260505225436 15 45 4.8 6.4 0.00 0.00 0.00 70 1019.1
20260505224437 15 36 0.0 1.6 0.00 0.00 0.00 71 1019.2
20260505223438 14 197 1.6 4.8 0.00 0.00 0.00 72 1019.0
20260505222437 13 176 1.6 4.8 0.00 0.00 0.00 72 1019.1
20260505221438 13 210 3.2 6.4 0.00 0.00 0.00 72 1019.0
20260505215437 13 39 1.6 4.8 0.00 0.00 0.00 70 1019.4
20260505214437 13 45 0.0 4.8 0.00 0.00 0.00 71 1019.4
20260505211438 14 90 1.6 11.3 0.00 0.00 0.00 71 1019.1
20260505210437 13 214 3.2 11.3 0.00 0.00 0.00 71 1019.4
20260505205439 13 96 3.2 9.7 0.00 0.00 0.00 72 1019.4
20260505204437 13 131 3.2 14.5 0.00 0.00 0.00 72 1019.4
20260505203439 13 218 3.2 6.4 0.00 0.00 0.00 73 1019.3
20260505202438 13 137 6.4 16.1 0.00 0.00 0.00 76 1019.3
20260505200438 12 208 6.4 16.1 0.00 0.00 0.00 81 1019.1
20260505195436 11 169 4.8 9.7 0.00 0.00 0.00 83 1018.9
20260505194437 11 264 3.2 9.7 0.00 0.00 0.00 85 1018.9
20260505193437 11 169 3.2 9.7 0.00 0.00 0.00 86 1018.9
20260505192437 10 184 6.4 12.9 0.00 0.00 0.00 88 1018.8
20260505185437 7 88 1.6 4.8 0.00 0.00 0.00 88 1019.0
20260505184438 6 204 3.2 6.4 0.00 0.00 0.00 88 1019.0
20260505183437 6 184 1.6 3.2 0.00 0.00 0.00 88 1019.1
20260505182437 5 129 1.6 6.4 0.00 0.00 0.00 88 1019.1
20260505181437 4 41 1.6 4.8 0.00 0.00 0.00 87 1019.2
20260505180438 4 38 4.8 9.7 0.00 0.00 0.00 87 1019.3
20260505175439 3 30 6.4 6.4 0.00 0.00 0.00 87 1019.3
20260505174437 3 30 6.4 6.4 0.00 0.00 0.00 87 1019.4
20260505173437 3 22 1.6 6.4 0.00 0.00 0.00 87 1019.4
20260505172436 3 34 4.8 6.4 0.00 0.00 0.00 87 1019.1
20260505171437 2 45 3.2 4.8 0.00 0.00 0.00 86 1019.2
20260505170437 2 45 3.2 6.4 0.00 0.00 0.00 86 1019.2
20260505164449 2 45 0.0 3.2 0.00 0.00 0.00 86 1019.8
20260505163437 2 45 1.6 3.2 0.00 0.00 0.00 86 1019.7
20260505162439 2 0 0.0 0.0 0.00 0.00 0.00 86 1019.5
20260505161438 2 69 0.0 3.2 0.00 0.00 0.00 86 1019.6
20260505160438 2 338 0.0 1.6 0.00 0.00 0.00 86 1019.5
20260505152437 2 45 1.6 3.2 0.00 0.00 0.00 86 1020.0
20260505151438 2 45 1.6 3.2 0.00 0.00 0.00 86 1020.2
20260505150437 2 45 3.2 3.2 0.00 0.00 0.00 85 1020.2
20260505140439 3 45 3.2 4.8 0.00 0.00 0.00 85 1020.9
20260505123437 3 45 1.6 3.2 0.00 0.00 0.00 85 1021.0
20260505121439 3 45 3.2 6.4 0.00 0.00 0.00 85 1021.4
20260505114437 3 45 1.6 3.2 0.00 0.00 0.00 85 1021.7
20260505113447 3 22 3.2 4.8 0.00 0.00 0.00 84 1021.9
20260505112437 3 34 1.6 3.2 0.00 0.00 0.00 84 1022.1
20260505111436 3 34 3.2 4.8 0.00 0.00 0.00 84 1022.1
20260505110439 3 32 3.2 3.2 0.00 0.00 0.00 84 1022.4